Location: Bourg-d�Oueil
(42.8588°N, 0.4991°E)
Time: 20:02:57
(UTC+00:00)

Cosmos 2278 Rocket - Pass Details

Date: 16 June 2021
Orbit: 840 x 847 km, 71.0° (Epoch: 02 August)

Event Time Altitude Azimuth Distance (km) Brightness Sun altitude
Rises 22:07:16 0° 343° (NNW) 3,409 6.9 -18.9°
Reaches altitude 10° 22:10:06 10° 355° (N) 2,472 5.7 -19.2°
Maximum altitude 22:14:54 27° 53° (NE) 1,561 3.7 -19.6°
Enters shadow 22:18:06 17° 99° (E) 2,021 3.9 -19.8°
